Frankfort, KY

9:41 PM EDT on July 25, 2017 (GMT -0400)
Capital City

Weather History for KFFT - July, 2014

Change the Weather History Date:

Wednesday, July 30, 2014

  Actual Average Record
Temperature  
Mean Temperature 68 °F 76 °F  
Max Temperature 80 °F 87 °F 102 °F (1999)
Min Temperature 56 °F 65 °F 50 °F (1965)
Degree Days  
Heating Degree Days 0 0  
Month to date heating degree days 3 0  
Since 1 June heating degree days 6 10  
Since 1 July heating degree days 3 0  
Cooling Degree Days 3 11  
Month to date cooling degree days 221 330  
Year to date cooling degree days 608 665  
Since 1 June cooling degree days 486 566  
Growing Degree Days 18 (Base 50)    
Moisture  
Dew Point 57 °F    
Average Humidity 73    
Maximum Humidity 100    
Minimum Humidity 45    
Precipitation  
Precipitation 0.00 in 0.13 in 1.02 in (1922)
Month to date precipitation 3.03 4.27  
Year to date precipitation 27.73 27.83  
Sea Level Pressure  
Sea Level Pressure 30.06 in    
Wind  
Wind Speed 4 mph (WSW)    
Max Wind Speed 14 mph    
Max Gust Speed 17 mph    
Visibility 10 miles    
Events      
T = Trace of Precipitation, MM = Missing Value Source: NWS Daily Summary

Daily Weather History Graph

Daily Weather History Graph

Search for Another Location

Airport or City:

Trip Planner

Search our weather history database for the weather conditions in past years. The results will help you decide how hot, cold, wet, or windy it might be!

Date:

Astronomy

Jul. 30, 2014 Rise Set
Actual Time 6:40 AM EDT 8:51 PM EDT
Civil Twilight 6:11 AM EDT 9:20 PM EDT
Nautical Twilight 5:34 AM EDT 9:56 PM EDT
Astronomical Twilight 4:55 AM EDT 10:35 PM EDT
Moon 10:07 AM EDT (7/30) 10:37 PM EDT (7/30)
Length of Visible Light 15h 09m
Length of Day
14h 10m
Waxing Crescent, 12% of the Moon is Illuminated
Jul 30
Waxing Crescent
Aug 3
First Quarter
Aug 10
Full
Aug 17
Last Quarter
Aug 25
New

Hourly Weather History & Observations

Time (EDT) Temp. Heat Index Dew Point Humidity Pressure Visibility Wind Dir Wind Speed Gust Speed Precip Events Conditions
12:53 AM 59.0 °F - 57.0 °F 93% 30.06 in 10.0 mi Calm Calm - N/A   Mostly Cloudy
2:53 AM 59.0 °F - 55.0 °F 87% 30.06 in 10.0 mi Calm Calm - N/A   Partly Cloudy
3:53 AM 55.9 °F - 55.0 °F 97% 30.06 in 10.0 mi Calm Calm - N/A   Partly Cloudy
4:53 AM 57.0 °F - 54.0 °F 89% 30.05 in 10.0 mi Calm Calm - N/A   Clear
5:53 AM 57.9 °F - 54.0 °F 87% 30.06 in 10.0 mi Calm Calm - N/A   Mostly Cloudy
6:53 AM 57.0 °F - 55.0 °F 93% 30.07 in 10.0 mi WSW 3.5 mph - N/A   Mostly Cloudy
7:53 AM 59.0 °F - 55.9 °F 90% 30.08 in 10.0 mi SW 4.6 mph - N/A   Partly Cloudy
8:53 AM 63.0 °F - 59.0 °F 87% 30.09 in 10.0 mi SW 5.8 mph - N/A   Clear
9:53 AM 68.0 °F - 59.0 °F 73% 30.09 in 10.0 mi West 4.6 mph - N/A   Scattered Clouds
10:53 AM 72.0 °F - 59.0 °F 64% 30.09 in 10.0 mi West 5.8 mph - N/A   Clear
11:53 AM 73.9 °F - 55.9 °F 53% 30.09 in 10.0 mi WNW 6.9 mph - N/A   Clear
1:53 PM 78.1 °F - 57.0 °F 48% 30.07 in 10.0 mi WSW 6.9 mph - N/A   Partly Cloudy
2:53 PM 80.1 °F 80.4 °F 57.0 °F 45% 30.06 in 10.0 mi WSW 6.9 mph - N/A   Scattered Clouds
3:53 PM 79.0 °F - 55.9 °F 45% 30.05 in 10.0 mi West 8.1 mph - N/A   Partly Cloudy
4:53 PM 78.1 °F - 55.9 °F 46% 30.04 in 10.0 mi West 8.1 mph - N/A   Partly Cloudy
5:53 PM 78.1 °F - 55.9 °F 46% 30.03 in 10.0 mi WSW 9.2 mph - N/A   Clear
6:53 PM 78.1 °F - 57.9 °F 50% 30.03 in 10.0 mi WSW 5.8 mph - N/A   Clear
8:53 PM 71.1 °F - 59.0 °F 66% 30.04 in 10.0 mi SSW 3.5 mph - N/A   Clear
9:53 PM 66.9 °F - 60.1 °F 79% 30.05 in 10.0 mi Calm Calm - N/A   Clear
10:53 PM 64.0 °F - 59.0 °F 84% 30.06 in 10.0 mi Calm Calm - N/A   Clear